This is the latest recevied weather packets stored in our database for station/object DC1SK-6. If no packets are shown the sender has not sent any weather packets the latest 10 day(s).
| Time | Temp. | Humidity | Pressure | Rain* | Wind** | Luminosity | Snow |
|---|---|---|---|---|---|---|---|
| 1777558929 | 17.22° C | 40% | - | 0 mm | - | 421 W/m² | - |
| 1777558329 | 17.22° C | 39% | - | 0 mm | - | 475 W/m² | - |
| 1777557755 | 16.67° C | 39% | - | 0 mm | - | 505 W/m² | - |
| 1777557219 | 17.22° C | 39% | - | 0 mm | - | 516 W/m² | - |
| 1777556679 | 16.67° C | 38% | - | 0 mm | - | 490 W/m² | - |
| 1777556194 | 16.67° C | 40% | - | 0 mm | - | 548 W/m² | - |
| 1777555699 | 16.67° C | 38% | - | 0 mm | - | 594 W/m² | - |
| 1777555154 | 16.67° C | 39% | - | 0 mm | - | 629 W/m² | - |
| 1777554659 | 16.67° C | 38% | - | 0 mm | - | 661 W/m² | - |
| 1777554069 | 16.67° C | 38% | - | 0 mm | - | 695 W/m² | - |
| 1777553539 | 16.11° C | 37% | - | 0 mm | - | 611 W/m² | - |
| 1777552944 | 16.11° C | 39% | - | 0 mm | - | 616 W/m² | - |
| 1777552414 | 16.67° C | 38% | - | 0 mm | - | 674 W/m² | - |
| 1777551919 | 16.67° C | 37% | - | 0 mm | - | 708 W/m² | - |
| 1777551364 | 16.67° C | 37% | - | 0 mm | - | 721 W/m² | - |
| 1777550784 | 16.11° C | 35% | - | 0 mm | - | 713 W/m² | - |
| 1777550234 | 16.11° C | 35% | - | 0 mm | - | 761 W/m² | - |
| 1777549699 | 15° C | 37% | - | 0 mm | - | 761 W/m² | - |
| 1777549159 | 15° C | 35% | - | 0 mm | - | 738 W/m² | - |
| 1777548674 | 15.56° C | 33% | - | 0 mm | - | 764 W/m² | - |
| 1777548119 | 15.56° C | 34% | - | 0 mm | - | 710 W/m² | - |
| 1777547539 | 15.56° C | 34% | - | 0 mm | - | 811 W/m² | - |
| 1777546999 | 15° C | 35% | - | 0 mm | - | 779 W/m² | - |
| 1777546474 | 15° C | 35% | - | 0 mm | - | 793 W/m² | - |
| 1777545969 | 14.44° C | 35% | - | 0 mm | - | 782 W/m² | - |
* Rain latest hour (hover to see other rain measurements)
** Current wind speed in m/s (hover to see current wind gust speed)